Defiance, OH

1:45 PM EST on January 17, 2018 (GMT -0500)
Defiance Memorial

Weather History for KDFI - June, 2013

Change the Weather History Date:

Wednesday, June 12, 2013

  Actual Average Record
Temperature  
Mean Temperature 77 °F -  
Max Temperature 88 °F 80 °F 93 °F (1954)
Min Temperature 66 °F 56 °F 39 °F (1972)
Cooling Degree Days 12    
Growing Degree Days 27 (Base 50)    
Moisture  
Dew Point 67 °F    
Average Humidity 77    
Maximum Humidity 94    
Minimum Humidity 57    
Precipitation  
Precipitation 0.97 in - - ()
Sea Level Pressure  
Sea Level Pressure 29.78 in    
Wind  
Wind Speed 3 mph (ENE)    
Max Wind Speed 23 mph    
Max Gust Speed 31 mph    
Visibility 8 miles    
Events Rain , Thunderstorm    
Averages and records for this station are not official NWS values.
T = Trace of Precipitation, MM = Missing Value Source: NWS Daily Summary

Daily Weather History Graph

Daily Weather History Graph

Search for Another Location

Airport or City:

Trip Planner

Search our weather history database for the weather conditions in past years. The results will help you decide how hot, cold, wet, or windy it might be!

Date:

Astronomy

Jun. 12, 2013 Rise Set
Actual Time 6:03 AM EDT 9:11 PM EDT
Civil Twilight 5:30 AM EDT 9:45 PM EDT
Nautical Twilight 4:46 AM EDT 10:28 PM EDT
Astronomical Twilight 3:55 AM EDT 11:20 PM EDT
Moon 9:44 AM EDT (6/12) 11:44 PM EDT (6/12)
Length of Visible Light 16h 15m
Length of Day
15h 07m
Waxing Crescent, 14% of the Moon is Illuminated
Jun 12
Waxing Crescent
Jun 16
First Quarter
Jun 23
Full
Jun 30
Last Quarter
Jul 8
New

Hourly Weather History & Observations

Time (EDT) Temp. Heat Index Dew Point Humidity Pressure Visibility Wind Dir Wind Speed Gust Speed Precip Events Conditions
12:53 AM 69.1 °F - 61.0 °F 75% 29.88 in 10.0 mi Calm Calm - N/A   Mostly Cloudy
1:53 AM 68.0 °F - 62.1 °F 81% 29.86 in 10.0 mi Calm Calm - N/A   Scattered Clouds
2:53 AM 66.9 °F - 61.0 °F 81% 29.86 in 10.0 mi Calm Calm - N/A   Partly Cloudy
3:53 AM 68.0 °F - 62.1 °F 81% 29.87 in 10.0 mi Calm Calm - N/A   Overcast
4:53 AM 68.0 °F - 62.1 °F 81% 29.89 in 10.0 mi Calm Calm - N/A   Mostly Cloudy
5:38 AM 66.2 °F - 62.6 °F 88% 29.91 in 9.0 mi Calm Calm - N/A   Overcast
5:53 AM 66.9 °F - 63.0 °F 87% 29.90 in 9.0 mi Calm Calm - N/A   Overcast
6:12 AM 66.2 °F - 62.6 °F 88% 29.89 in 8.0 mi East 3.5 mph - N/A   Scattered Clouds
6:53 AM 68.0 °F - 63.0 °F 84% 29.88 in 7.0 mi Calm Calm - 0.00 in Rain Light Rain
7:53 AM 69.1 °F - 64.9 °F 87% 29.88 in 6.0 mi Calm Calm - 0.00 in   Partly Cloudy
8:53 AM 72.0 °F - 64.9 °F 78% 29.90 in 7.0 mi Calm Calm - N/A   Clear
9:53 AM 75.0 °F - 64.9 °F 71% 29.90 in 10.0 mi Calm Calm - N/A   Clear
10:53 AM 75.9 °F - 66.0 °F 71% 29.90 in 10.0 mi East 3.5 mph - N/A   Clear
11:53 AM 78.1 °F - 66.9 °F 68% 29.88 in 10.0 mi SE 6.9 mph - N/A   Clear
12:53 PM 80.1 °F 82.7 °F 68.0 °F 67% 29.87 in 10.0 mi SE 4.6 mph - N/A   Clear
1:53 PM 82.0 °F 85.5 °F 69.1 °F 65% 29.84 in 10.0 mi South 8.1 mph - N/A   Clear
2:53 PM 84.0 °F 88.4 °F 70.0 °F 63% 29.82 in 10.0 mi Variable 4.6 mph - N/A   Clear
3:53 PM 82.9 °F 87.5 °F 71.1 °F 67% 29.76 in 10.0 mi ESE 6.9 mph - N/A   Scattered Clouds
4:53 PM 86.0 °F 91.5 °F 71.1 °F 61% 29.78 in 10.0 mi South 8.1 mph - 0.00 in   Partly Cloudy
5:53 PM 88.0 °F 94.7 °F 72.0 °F 59% 29.77 in 10.0 mi Calm Calm - N/A   Scattered Clouds
6:53 PM 88.0 °F 93.8 °F 71.1 °F 57% 29.73 in 10.0 mi Calm Calm - N/A   Mostly Cloudy
7:53 PM 84.9 °F 90.1 °F 71.1 °F 63% 29.72 in 10.0 mi Calm Calm - N/A   Scattered Clouds
8:45 PM 82.4 °F 87.2 °F 71.6 °F 70% 29.72 in 10.0 mi Calm Calm - N/A Thunderstorm Mostly Cloudy
8:53 PM 81.0 °F 85.2 °F 72.0 °F 74% 29.70 in 10.0 mi NNE 3.5 mph - N/A Thunderstorm Mostly Cloudy
9:44 PM 78.8 °F - 71.6 °F 78% 29.70 in 9.0 mi Calm Calm - 0.00 in   Mostly Cloudy
9:53 PM 78.1 °F - 73.0 °F 84% 29.68 in 8.0 mi ENE 5.8 mph - 0.00 in   Mostly Cloudy
10:05 PM 78.8 °F - 71.6 °F 78% 29.68 in 8.0 mi East 6.9 mph - 0.00 in Rain , Thunderstorm Light Rain
10:31 PM 75.2 °F - 69.8 °F 83% 29.66 in 7.0 mi ENE 9.2 mph - 0.00 in Rain Light Rain
10:53 PM 75.0 °F - 68.0 °F 79% 29.63 in 6.0 mi ENE 6.9 mph - 0.00 in Thunderstorm Haze
11:18 PM 73.4 °F - 69.8 °F 88% 29.68 in 2.0 mi NW 23.0 mph 31.1 mph 0.14 in Rain , Thunderstorm Thunderstorms and Rain
11:22 PM 71.6 °F - 69.8 °F 94% 29.65 in 0.8 mi NNW 16.1 mph 31.1 mph 0.39 in Rain , Thunderstorm Heavy Thunderstorms and Rain
11:32 PM 69.8 °F - 64.4 °F 83% 29.62 in 2.0 mi NE 10.4 mph - 0.48 in Rain , Thunderstorm Heavy Thunderstorms and Rain
11:34 PM 69.8 °F - 62.6 °F 78% 29.62 in 3.0 mi NNE 11.5 mph - 0.49 in Rain , Thunderstorm Heavy Thunderstorms and Rain
11:46 PM 68.0 °F - 64.4 °F 88% 29.72 in 2.5 mi WSW 11.5 mph 24.2 mph 0.63 in Rain , Thunderstorm Heavy Thunderstorms and Rain
11:48 PM 68.0 °F - 64.4 °F 88% 29.72 in 1.5 mi WSW 8.1 mph 24.2 mph 0.74 in Rain , Thunderstorm Heavy Thunderstorms and Rain
11:53 PM 68.0 °F - 64.9 °F 90% 29.66 in 0.8 mi NNW 13.8 mph 18.4 mph 0.97 in Rain , Thunderstorm Heavy Thunderstorms and Rain